Location: Newark
(23.1300°N, 73.6109°E)
Time: 16:44:57
(UTC+00:00)

AO-7 - Pass Details

Date: 11 July 2020
Orbit: 1440 x 1458 km, 101.8° (Epoch: 05 August)

Event Time Altitude Azimuth Distance (km) Brightness Sun altitude
Rises 23:47:03 0° 3° (N) 4,562 ? -9.2°
Reaches altitude 10° 23:50:06 10° 355° (N) 3,583 ? -8.6°
Maximum altitude 23:57:26 36° 293° (WNW) 2,164 ? -7.1°
Drops below altitude 10° 00:04:46 10° 231° (SW) 3,572 ? -5.6°
Enters shadow 00:06:44 - 225° (SW) 4,184 ? -5.2°
